This demonstration page uses our WeatherBlox Daily Observations layout. Learn more.

Left ArrowRight Arrow

44.89941, -97.11507

Hourly Observations for June 11, 2021

Temp ( °F °C ) Dew Point ( °F °C ) Humidity (%) Winds ( mph kmh ) Pressure ( in mb ) Visibility ( mi km ) Precip ( " mm )
12:53 am 00:53 Mostly Cloudy 82 27.8 63 17.2 53 53 SSE 13 20 29.66 1004 10 16 0.00 0.00
1:53 am 01:53 Partly Cloudy 82 27.8 63 17.2 53 53 SSE 16 26 29.64 1004 10 16 0.00 0.00
2:53 am 02:53 Partly Cloudy 81 27.2 63 17.2 54 54 SSE 15 24 29.67 1005 10 16 0.00 0.00
3:53 am 03:53 Clear 79 26.1 64 17.8 60 60 SSE 16 26 29.62 1003 10 16 0.00 0.00
4:25 am 04:25 Clear with Nearby Thunderstorms 79 26.1 65 18.3 62 62 SSE 15 24 29.59 1002 10 16 0.00 0.00
4:40 am 04:40 Clear 79 26.1 66 18.9 65 65 S 13 20 29.60 1002 10 16 0.00 0.00
4:53 am 04:53 Clear 80 26.7 67 19.4 64 64 S 15 24 29.62 1003 10 16 0.00 0.00
5:28 am 05:28 Mostly Cloudy with Nearby Thunderstorms 69 20.6 61 16.1 76 76 WNW 23 37 29.75 1007 5 8 0.01 0.25
5:41 am 05:41 Cloudy with Thunderstorms 65 18.3 63 17.2 93 93 WNW 13 20 29.77 1008 4 6 0.07 1.78
5:53 am 05:53 Cloudy with Strong Thunderstorms 65 18.3 63 17.2 93 93 NNW 13 20 29.77 1008 3 5 0.15 3.81
6:01 am 06:01 Mostly Cloudy with Strong Thunderstorms 65 18.3 63 17.2 93 93 NNW 13 20 29.77 1008 2 3 0.11 2.79
6:11 am 06:11 Cloudy with Light Rain 65 18.3 63 17.2 93 93 N 14 22 29.75 1007 3 5 0.18 4.57
6:31 am 06:31 Cloudy with Nearby Thunderstorms 65 18.3 63 17.2 93 93 NW 12 19 29.75 1007 10 16 0.19 4.83
6:53 am 06:53 Cloudy with Nearby Thunderstorms 66 18.9 63 17.2 90 90 NW 8 13 29.74 1007 10 16 0.20 5.08
7:03 am 07:03 Cloudy with Light Rain 66 18.9 63 17.2 90 90 WNW 5 7 29.73 1007 9 14 0.02 0.51
7:42 am 07:42 Cloudy with Nearby Thunderstorms 66 18.9 62 16.7 87 87 SSW 9 15 29.73 1007 9 14 0.05 1.27
7:53 am 07:53 Cloudy with Light Rain 66 18.9 63 17.2 90 90 SSW 13 20 29.75 1007 10 16 0.06 1.52
8:34 am 08:34 Windy with Storms Likely 65 18.3 63 17.2 93 93 E 20 31 29.68 1005 10 16 0.05 1.27
8:49 am 08:49 Mostly Cloudy 64 18 63 17 94 94 E 18 30 29.64 1004 10 16 0.05 1.27
8:53 am 08:53 Partly Cloudy 65 18.3 63 17.2 93 93 E 15 24 29.62 1003 10 16 0.05 1.27
9:53 am 09:53 Sunny 69 20.6 63 17.2 81 81 W 9 15 29.76 1008 10 16 0.00 0.00
10:35 am 10:35 Mostly Cloudy 70 21.1 62 16.7 76 76 WNW 9 15 29.76 1008 10 16 0.00 0.00
10:53 am 10:53 Partly Cloudy 70 21.1 62 16.7 76 76 W 12 19 29.80 1009 10 16 0.00 0.00
11:39 am 11:39 Mostly Cloudy 70 21.1 61 16.1 73 73 W 14 22 29.80 1009 10 16 0.00 0.00
11:53 am 11:53 Partly Cloudy 70 21.1 60 15.6 71 71 WNW 10 17 29.83 1010 10 16 0.00 0.00
12:53 pm 12:53 Sunny 72 22.2 59 15 64 64 WNW 16 26 29.82 1010 10 16 0.00 0.00
1:53 pm 13:53 Sunny 75 23.9 56 13.3 52 52 W 16 26 29.81 1010 10 16 0.00 0.00
2:53 pm 14:53 Sunny 75 23.9 53 11.7 46 46 W 18 30 29.82 1010 10 16 0.00 0.00
3:53 pm 15:53 Sunny 76 24.4 51 10.6 42 42 W 21 33 29.82 1010 10 16 0.00 0.00
4:53 pm 16:53 Sunny 76 24.4 52 11.1 43 43 WNW 18 30 29.83 1010 10 16 0.00 0.00
5:53 pm 17:53 Sunny 75 23.9 51 10.6 43 43 WNW 21 33 29.86 1011 10 16 0.00 0.00
6:53 pm 18:53 Sunny 75 23.9 51 10.6 43 43 WNW 17 28 29.87 1011 10 16 0.00 0.00
7:53 pm 19:53 Sunny 73 22.8 50 10 44 44 WNW 15 24 29.89 1012 10 16 0.00 0.00
8:53 pm 20:53 Sunny 70 21.1 50 10 49 49 NW 13 20 29.91 1013 10 16 0.00 0.00
9:53 pm 21:53 Clear 65 18.3 51 10.6 61 61 NW 6 9 29.93 1014 10 16 0.00 0.00
10:53 pm 22:53 Clear 63 17.2 51 10.6 65 65 NNW 3 6 29.96 1015 10 16 0.00 0.00
11:53 pm 23:53 Clear 61 16.1 51 10.6 70 70 NW 5 7 29.98 1015 10 16 0.00 0.00

Powered by AerisWeather